Skip Page Navigation
NASA JPL Caltech
NASA Logo - Jet Propulsion Laboratory + View the NASA Portal
+ Near-Earth Object (NEO) Program
Search JPL
JPL Home Earth Solar System Stars & Galaxies Technology
JPL Solar System Dynamics
BODIES ORBITS EPHEMERIDES TOOLS PHYSICAL DATA DISCOVERY FAQ SITE MAP
JPL Small-Body Database Browser
Search: [ help ]  
15842 (1995 SX2)
Classification: Main-belt Asteroid          SPK-ID: 2015842
Ephemeris | Orbit Diagram | Orbital Elements | Physical Parameters | Discovery Circumstances | Close-Approach Data ]

[ show orbit diagram ]
Orbital Elements at Epoch 2457000.5 (2014-Dec-09.0) TDB
Reference: JPL 11 (heliocentric ecliptic J2000)
 Element Value Uncertainty (1-sigma)   Units 
e .1917728586015227 5.1851e-08  
a 2.423940588878554 1.4001e-08 AU
q 1.959094573069055 1.2418e-07 AU
i 3.506144763731565 6.636e-06 deg
node 42.03877544280363 8.2629e-05 deg
peri 280.1702078232647 8.4448e-05 deg
M 56.0773082443263 1.7179e-05 deg
tp 2456785.783192339303
(2014-May-08.28319234)
6.5734e-05 JED
period 1378.419420937018
3.77
1.1943e-05
3.27e-08
d
yr
n .2611686940360143 2.2628e-09 deg/d
Q 2.888786604688052 1.6686e-08 AU
  Orbit Determination Parameters
   # obs. used (total)      1108  
   data-arc span      7596 days (20.80 yr)  
   first obs. used      1994-04-02  
   last obs. used      2015-01-18  
   planetary ephem.      DE431  
   SB-pert. ephem.      SB431-BIG16  
   condition code      0  
   fit RMS      .51872  
   data source      ORB  
   producer      Otto Matic  
   solution date      2015-Feb-04 13:44:21  

Additional Information
 Earth MOID = .951183 AU 
 T_jup = 3.484 
[ show covariance matrix ]

Ephemeris | Orbit Diagram | Orbital Elements | Physical Parameters | Discovery Circumstances | Close-Approach Data ]

Physical Parameter Table
Parameter Symbol Value Units Sigma Reference Notes
absolute magnitude H 14.2 mag n/a MPO319282  

15842 (1995 SX2)          Discovered 1995-Sep-20 by Ueda, S., Kaneda, H. at Kushiro (399)
Reference: 20000726/Numbers.arcLast Updated: 2004-04-19

[ show close-approach data ]
Alternate Designations
 1995 SX2 = 1998 DG14 
Ephemeris | Orbit Diagram | Orbital Elements | Physical Parameters | Discovery Circumstances | Close-Approach Data ]
ABOUT SSD CREDITS/AWARDS PRIVACY/COPYRIGHT GLOSSARY LINKS
FirstGov 2015-Feb-27 06:01 UT
(server date/time)  
NASA Home Page
Site Manager:   Ryan S. Park
Webmaster  Alan B. Chamberlin